Aeroporto :
LOGIN :

Iscrizione | Disclaimer

   EN    FR    IT 

 










Sommario :    VFR   VFR Marginale   IFR   IFR Intensivo   IFR Molto Intensivo
Visibilità : 
Base nubi : 
>= 8 km
>= 3000ft
5 / 8 km
1000 / 3000 ft
1500m / 5 km
500 / 1000 ft
800 / 1500m
200 / 500 ft
< 800m
< 200 ft
Simboli :   Temporali  Nebbia  Neve Forte  Precipitazioni Forti  Vento > 20 kt
SIGMETs :   Varie  Temporali  Ghiacco  Turbolenza  Onda orograficha  Ceneri Vulcaniche







- Altitudine del aeroporto : 386 ft
- Codice IATA : QOE


ETNN - Nörvenich Airforce Base

ULTIMO METAR :
  • 220720Z 24009KT 9999 FEW160 BKN340 22/12 Q1024 BLU+BLU+ TEMPO BLU

METARs OBSOLETI :
  • 220620Z 21007KT 9999 FEW160 BKN340 20/12 Q1024 BLU+BLU+ TEMPO BLU
  • 220520Z 20007KT 9999 FEW160 BKN340 18/11 Q1023 BLU+BLU+ TEMPO BLU

TAF TAF ETNN
Valido dal 22 a 08 ore il 22 a 17 ore UTC


220700Z 2208/2217 22007KT 9999 NSW SCT120 BKN220
TEMPO 2208/2217 25007KT 9999 NSW SCT100 BKN150 BY ETGL
Nessun NOTAM noto per questo aeroporto.



MetMap, La meteo Aeronautica in un colpo d'occhio ! - Copyright ORBIFLY Dicembre 2007 - Disclaimer

ORBIFLY MET'MAP TEAM :

Programmazione e sviluppo : Alexandra Zaïnal
Concezione e sviluppo : Baudouin d'Aumeries
Co-Programmazione e sviluppo : Marc-Olivier Méhu
Supporto tecnico e logistico : Manuel Goepfert
Aiuto per la traduzione : Arnaldo La Scala

Contatto : metmap@orbifly.com




FONTI E CREDITI :

   NOAA